| time (UTC) | temp F | wind direction | speed MPH | gust MPH | rain 1hr in | rain 24hr in | rain mn in | humidity % | barometer mb |
| 20260509201548 | 53 | 175 | 4.0 | 9.0 | 0.08 | 0.41 | 0.40 | 93 | 1008.3 |
| 20260509201025 | 53 | 227 | 3.0 | 8.0 | 0.08 | 0.41 | 0.40 | 94 | 1008.2 |
| 20260509200526 | 52 | 236 | 2.0 | 8.0 | 0.08 | 0.41 | 0.40 | 93 | 1008.2 |
| 20260509200046 | 52 | 169 | 3.0 | 8.0 | 0.08 | 0.41 | 0.40 | 93 | 1008.2 |
| 20260509195527 | 52 | 188 | 1.0 | 5.0 | 0.09 | 0.41 | 0.40 | 93 | 1008.3 |
| 20260509195026 | 52 | 155 | 1.0 | 7.0 | 0.09 | 0.41 | 0.40 | 93 | 1008.3 |
| 20260509194552 | 52 | 140 | 2.0 | 8.0 | 0.08 | 0.40 | 0.39 | 93 | 1008.3 |
| 20260509194028 | 52 | 194 | 3.0 | 8.0 | 0.06 | 0.38 | 0.37 | 93 | 1008.5 |
| 20260509193527 | 52 | 222 | 1.0 | 6.0 | 0.04 | 0.36 | 0.35 | 93 | 1008.6 |
| 20260509193049 | 52 | 217 | 1.0 | 6.0 | 0.02 | 0.34 | 0.33 | 93 | 1008.6 |
| 20260509192526 | 52 | 171 | 2.0 | 7.0 | 0.02 | 0.34 | 0.33 | 93 | 1008.5 |
| 20260509192026 | 52 | 155 | 2.0 | 8.0 | 0.01 | 0.33 | 0.32 | 93 | 1008.6 |
| 20260509191547 | 52 | 184 | 3.0 | 8.0 | 0.01 | 0.33 | 0.32 | 93 | 1008.6 |
| 20260509191029 | 52 | 176 | 3.0 | 8.0 | 0.01 | 0.33 | 0.32 | 93 | 1008.7 |
| 20260509190527 | 52 | 182 | 3.0 | 7.0 | 0.02 | 0.33 | 0.32 | 93 | 1008.5 |
| 20260509190048 | 52 | 161 | 3.0 | 8.0 | 0.02 | 0.33 | 0.32 | 93 | 1008.6 |
| 20260509185529 | 52 | 178 | 2.0 | 8.0 | 0.02 | 0.32 | 0.31 | 93 | 1008.7 |
| 20260509185026 | 52 | 136 | 5.0 | 8.0 | 0.03 | 0.32 | 0.31 | 93 | 1008.6 |
| 20260509184548 | 52 | 94 | 2.0 | 9.0 | 0.03 | 0.32 | 0.31 | 93 | 1008.7 |
| 20260509184027 | 52 | 216 | 4.0 | 10.0 | 0.04 | 0.32 | 0.31 | 93 | 1008.6 |
| 20260509183526 | 52 | 177 | 3.0 | 10.0 | 0.04 | 0.32 | 0.31 | 93 | 1008.5 |
| 20260509183100 | 52 | 193 | 4.0 | 10.0 | 0.04 | 0.32 | 0.31 | 93 | 1008.6 |
| 20260509182529 | 52 | 157 | 3.0 | 9.0 | 0.04 | 0.32 | 0.31 | 94 | 1008.7 |
| 20260509182027 | 51 | 167 | 2.0 | 8.0 | 0.05 | 0.32 | 0.31 | 94 | 1008.6 |
| 20260509181546 | 51 | 123 | 3.0 | 9.0 | 0.05 | 0.32 | 0.31 | 94 | 1008.7 |
| 20260509181026 | 51 | 153 | 4.0 | 9.0 | 0.05 | 0.32 | 0.31 | 94 | 1008.8 |
| 20260509180528 | 51 | 154 | 3.0 | 8.0 | 0.04 | 0.31 | 0.30 | 93 | 1008.7 |
| 20260509180054 | 50 | 166 | 1.0 | 6.0 | 0.04 | 0.31 | 0.30 | 93 | 1008.7 |
| 20260509175528 | 50 | 139 | 1.0 | 4.0 | 0.03 | 0.30 | 0.29 | 93 | 1008.8 |
| 20260509175028 | 50 | 192 | 1.0 | 6.0 | 0.02 | 0.29 | 0.28 | 93 | 1008.8 |
| 20260509174547 | 50 | 165 | 2.0 | 8.0 | 0.01 | 0.28 | 0.27 | 93 | 1008.8 |
| 20260509174027 | 50 | 199 | 2.0 | 8.0 | 0.01 | 0.28 | 0.27 | 93 | 1008.8 |
| 20260509173525 | 50 | 126 | 1.0 | 5.0 | 0.01 | 0.28 | 0.27 | 93 | 1008.8 |
| 20260509173043 | 50 | 199 | 0.0 | 6.0 | 0.01 | 0.28 | 0.27 | 93 | 1008.8 |
| 20260509172528 | 50 | 179 | 1.0 | 6.0 | 0.01 | 0.28 | 0.27 | 93 | 1008.8 |
| 20260509172028 | 50 | 164 | 1.0 | 5.0 | 0.00 | 0.27 | 0.26 | 93 | 1008.8 |
| 20260509171547 | 50 | 192 | 1.0 | 5.0 | 0.00 | 0.27 | 0.26 | 93 | 1008.7 |
| 20260509171026 | 50 | 150 | 2.0 | 7.0 | 0.00 | 0.27 | 0.26 | 93 | 1008.9 |
| 20260509170526 | 50 | 179 | 2.0 | 7.0 | 0.00 | 0.27 | 0.26 | 92 | 1008.9 |
| 20260509170047 | 50 | 192 | 2.0 | 7.0 | 0.00 | 0.27 | 0.26 | 93 | 1008.8 |
| 20260509165526 | 50 | 198 | 1.0 | 7.0 | 0.00 | 0.27 | 0.26 | 93 | 1008.7 |
| 20260509165026 | 50 | 148 | 1.0 | 7.0 | 0.00 | 0.27 | 0.26 | 92 | 1008.8 |
| 20260509164545 | 50 | 145 | 3.0 | 8.0 | 0.00 | 0.27 | 0.26 | 92 | 1008.7 |
| 20260509164027 | 50 | 146 | 2.0 | 8.0 | 0.00 | 0.27 | 0.26 | 92 | 1008.8 |
| 20260509163530 | 50 | 158 | 1.0 | 8.0 | 0.00 | 0.27 | 0.26 | 92 | 1008.8 |
| 20260509163048 | 50 | 162 | 2.0 | 10.0 | 0.00 | 0.27 | 0.26 | 93 | 1008.9 |
| 20260509162529 | 50 | 155 | 4.0 | 10.0 | 0.00 | 0.27 | 0.26 | 93 | 1008.8 |
| 20260509162028 | 50 | 178 | 3.0 | 9.0 | 0.00 | 0.27 | 0.26 | 93 | 1008.8 |
| 20260509161545 | 49 | 233 | 3.0 | 9.0 | 0.00 | 0.27 | 0.26 | 93 | 1008.9 |
| 20260509161027 | 49 | 150 | 3.0 | 9.0 | 0.00 | 0.27 | 0.26 | 93 | 1008.9 |
| 20260509160526 | 49 | 152 | 4.0 | 10.0 | 0.00 | 0.27 | 0.26 | 93 | 1008.9 |
| 20260509160049 | 49 | 83 | 4.0 | 10.0 | 0.00 | 0.27 | 0.26 | 93 | 1009.0 |
| 20260509155525 | 49 | 109 | 3.0 | 9.0 | 0.00 | 0.27 | 0.26 | 93 | 1008.9 |
| 20260509155027 | 49 | 144 | 4.0 | 10.0 | 0.00 | 0.27 | 0.26 | 93 | 1009.0 |
| 20260509154546 | 49 | 136 | 3.0 | 10.0 | 0.00 | 0.27 | 0.26 | 92 | 1009.1 |
| 20260509154027 | 49 | 202 | 3.0 | 9.0 | 0.00 | 0.27 | 0.26 | 92 | 1009.1 |
| 20260509153525 | 49 | 155 | 4.0 | 9.0 | 0.00 | 0.27 | 0.26 | 92 | 1009.2 |
| 20260509153052 | 49 | 148 | 3.0 | 11.0 | 0.00 | 0.27 | 0.26 | 92 | 1009.4 |
| 20260509152526 | 49 | 149 | 4.0 | 11.0 | 0.00 | 0.27 | 0.26 | 92 | 1009.2 |
| 20260509152026 | 49 | 162 | 4.0 | 11.0 | 0.00 | 0.27 | 0.26 | 93 | 1009.3 |
| 20260509151544 | 49 | 169 | 3.0 | 9.0 | 0.00 | 0.27 | 0.26 | 92 | 1009.6 |
| 20260509151028 | 49 | 144 | 3.0 | 8.0 | 0.00 | 0.27 | 0.26 | 92 | 1009.6 |
| 20260509150529 | 49 | 154 | 2.0 | 13.0 | 0.00 | 0.27 | 0.26 | 92 | 1009.6 |
| 20260509150044 | 49 | 169 | 4.0 | 13.0 | 0.00 | 0.27 | 0.26 | 92 | 1009.4 |
| 20260509145526 | 49 | 76 | 4.0 | 13.0 | 0.00 | 0.27 | 0.26 | 92 | 1009.5 |
| 20260509145030 | 49 | 166 | 3.0 | 10.0 | 0.00 | 0.27 | 0.26 | 92 | 1009.4 |
| 20260509144548 | 49 | 160 | 3.0 | 10.0 | 0.00 | 0.27 | 0.26 | 92 | 1009.4 |
| 20260509144026 | 49 | 117 | 3.0 | 9.0 | 0.00 | 0.27 | 0.26 | 92 | 1009.4 |
| 20260509143529 | 49 | 144 | 3.0 | 9.0 | 0.00 | 0.27 | 0.26 | 93 | 1009.3 |
| 20260509143056 | 49 | 154 | 3.0 | 10.0 | 0.01 | 0.27 | 0.26 | 93 | 1009.2 |
| 20260509142527 | 48 | 148 | 4.0 | 10.0 | 0.01 | 0.27 | 0.26 | 93 | 1009.2 |
| 20260509142027 | 48 | 162 | 3.0 | 9.0 | 0.01 | 0.27 | 0.26 | 93 | 1009.4 |
| 20260509141548 | 48 | 190 | 3.0 | 9.0 | 0.01 | 0.27 | 0.26 | 93 | 1009.4 |
| 20260509141027 | 48 | 157 | 2.0 | 9.0 | 0.01 | 0.27 | 0.26 | 92 | 1009.3 |
| 20260509140529 | 48 | 140 | 3.0 | 9.0 | 0.02 | 0.27 | 0.26 | 92 | 1009.4 |
| 20260509140057 | 48 | 133 | 3.0 | 9.0 | 0.02 | 0.27 | 0.26 | 93 | 1009.5 |
| 20260509135531 | 48 | 136 | 4.0 | 7.0 | 0.02 | 0.27 | 0.26 | 93 | 1009.5 |
| 20260509135028 | 48 | 247 | 1.0 | 7.0 | 0.02 | 0.27 | 0.26 | 93 | 1009.6 |
| 20260509134544 | 48 | 150 | 2.0 | 7.0 | 0.03 | 0.27 | 0.26 | 93 | 1009.7 |
| 20260509134027 | 48 | 0 | 1.0 | 5.0 | 0.03 | 0.27 | 0.26 | 93 | 1009.8 |
| 20260509133528 | 48 | 214 | 1.0 | 7.0 | 0.03 | 0.27 | 0.26 | 93 | 1009.7 |
| 20260509133041 | 48 | 167 | 3.0 | 7.0 | 0.02 | 0.26 | 0.25 | 93 | 1009.9 |
| 20260509132526 | 48 | 219 | 3.0 | 7.0 | 0.02 | 0.26 | 0.25 | 93 | 1009.7 |
| 20260509132025 | 48 | 171 | 3.0 | 7.0 | 0.02 | 0.26 | 0.25 | 93 | 1009.8 |
| 20260509131552 | 48 | 209 | 2.0 | 8.0 | 0.02 | 0.26 | 0.25 | 93 | 1009.9 |
| 20260509131025 | 48 | 164 | 1.0 | 11.0 | 0.02 | 0.26 | 0.25 | 94 | 1009.9 |
| 20260509130529 | 48 | 159 | 4.0 | 13.0 | 0.01 | 0.25 | 0.24 | 94 | 1009.7 |
| 20260509130047 | 48 | 106 | 5.0 | 13.0 | 0.01 | 0.25 | 0.24 | 94 | 1009.8 |
| 20260509125528 | 47 | 155 | 2.0 | 8.0 | 0.01 | 0.25 | 0.24 | 94 | 1009.9 |
| 20260509125025 | 47 | 177 | 3.0 | 10.0 | 0.00 | 0.24 | 0.23 | 94 | 1009.9 |
| 20260509124551 | 47 | 178 | 3.0 | 10.0 | 0.00 | 0.24 | 0.23 | 95 | 1009.9 |
| 20260509124025 | 47 | 159 | 1.0 | 8.0 | 0.00 | 0.24 | 0.23 | 94 | 1009.8 |
| 20260509123528 | 47 | 155 | 2.0 | 8.0 | 0.00 | 0.24 | 0.23 | 95 | 1009.9 |
| 20260509123059 | 47 | 151 | 2.0 | 8.0 | 0.00 | 0.24 | 0.23 | 95 | 1009.9 |
| 20260509122528 | 47 | 150 | 1.0 | 5.0 | 0.00 | 0.24 | 0.23 | 95 | 1009.8 |
| 20260509122026 | 47 | 142 | 1.0 | 3.0 | 0.00 | 0.24 | 0.23 | 94 | 1009.9 |
| 20260509121539 | 46 | 0 | 0.0 | 2.0 | 0.01 | 0.24 | 0.23 | 95 | 1009.9 |
| 20260509121026 | 46 | 153 | 0.0 | 2.0 | 0.01 | 0.24 | 0.23 | 94 | 1009.9 |
| 20260509120526 | 46 | 0 | 0.0 | 2.0 | 0.01 | 0.24 | 0.23 | 94 | 1010.1 |
| 20260509120049 | 46 | 0 | 0.0 | 1.0 | 0.02 | 0.24 | 0.23 | 94 | 1010.1 |
| 20260509115526 | 46 | 0 | 0.0 | 1.0 | 0.02 | 0.24 | 0.23 | 94 | 1010.0 |
| 20260509115025 | 46 | 0 | 0.0 | 2.0 | 0.03 | 0.24 | 0.23 | 94 | 1010.0 |
| 20260509114547 | 46 | 0 | 0.0 | 2.0 | 0.04 | 0.24 | 0.23 | 94 | 1010.0 |
| 20260509114027 | 46 | 0 | 0.0 | 3.0 | 0.04 | 0.24 | 0.23 | 95 | 1010.1 |
| 20260509113530 | 46 | 0 | 0.0 | 6.0 | 0.05 | 0.24 | 0.23 | 95 | 1010.1 |
| 20260509113044 | 46 | 197 | 2.0 | 6.0 | 0.05 | 0.24 | 0.23 | 95 | 1010.1 |
| 20260509112527 | 46 | 161 | 1.0 | 5.0 | 0.06 | 0.24 | 0.23 | 95 | 1010.2 |
| 20260509112027 | 46 | 170 | 0.0 | 3.0 | 0.07 | 0.24 | 0.23 | 95 | 1010.2 |
| 20260509111546 | 46 | 148 | 0.0 | 4.0 | 0.07 | 0.23 | 0.22 | 95 | 1010.2 |
| 20260509111027 | 46 | 0 | 0.0 | 4.0 | 0.07 | 0.23 | 0.22 | 95 | 1010.3 |
| 20260509110528 | 46 | 0 | 0.0 | 3.0 | 0.08 | 0.23 | 0.22 | 95 | 1010.2 |
| 20260509110044 | 46 | 172 | 0.0 | 5.0 | 0.07 | 0.22 | 0.21 | 95 | 1010.3 |
| 20260509105528 | 46 | 194 | 1.0 | 5.0 | 0.08 | 0.22 | 0.21 | 95 | 1010.3 |
| 20260509105028 | 46 | 221 | 1.0 | 5.0 | 0.07 | 0.21 | 0.20 | 95 | 1010.2 |
| 20260509104542 | 46 | 0 | 0.0 | 5.0 | 0.06 | 0.20 | 0.19 | 94 | 1010.2 |
| 20260509104027 | 46 | 182 | 1.0 | 5.0 | 0.06 | 0.20 | 0.19 | 94 | 1010.2 |
| 20260509103530 | 46 | 0 | 0.0 | 1.0 | 0.05 | 0.19 | 0.18 | 94 | 1010.2 |
| 20260509103049 | 46 | 0 | 0.0 | 1.0 | 0.05 | 0.18 | 0.17 | 94 | 1010.3 |
| 20260509102528 | 46 | 0 | 0.0 | 1.0 | 0.05 | 0.18 | 0.17 | 94 | 1010.2 |
| 20260509102029 | 46 | 0 | 0.0 | 0.0 | 0.05 | 0.17 | 0.16 | 94 | 1010.2 |
| 20260509101548 | 46 | 0 | 0.0 | 0.0 | 0.04 | 0.16 | 0.15 | 94 | 1010.1 |
| 20260509101025 | 46 | 0 | 0.0 | 0.0 | 0.04 | 0.16 | 0.15 | 94 | 1010.1 |
| 20260509100524 | 46 | 0 | 0.0 | 0.0 | 0.04 | 0.15 | 0.14 | 94 | 1010.0 |
| 20260509100050 | 46 | 0 | 0.0 | 0.0 | 0.05 | 0.15 | 0.14 | 94 | 1009.9 |
| 20260509095528 | 46 | 0 | 0.0 | 0.0 | 0.05 | 0.14 | 0.13 | 94 | 1010.0 |
| 20260509095024 | 46 | 0 | 0.0 | 1.0 | 0.05 | 0.14 | 0.13 | 94 | 1010.0 |
| 20260509094548 | 46 | 0 | 0.0 | 2.0 | 0.05 | 0.14 | 0.13 | 94 | 1009.9 |
| 20260509094027 | 46 | 0 | 0.0 | 2.0 | 0.05 | 0.14 | 0.13 | 94 | 1010.0 |
| 20260509093528 | 46 | 260 | 0.0 | 2.0 | 0.05 | 0.14 | 0.13 | 94 | 1010.1 |
| 20260509093044 | 46 | 281 | 0.0 | 2.0 | 0.04 | 0.13 | 0.12 | 94 | 1010.1 |
| 20260509092528 | 46 | 0 | 0.0 | 0.0 | 0.04 | 0.13 | 0.12 | 94 | 1010.0 |
| 20260509092031 | 46 | 0 | 0.0 | 0.0 | 0.03 | 0.12 | 0.11 | 94 | 1009.9 |
| 20260509091540 | 46 | 0 | 0.0 | 0.0 | 0.03 | 0.12 | 0.11 | 94 | 1010.0 |
| 20260509091028 | 46 | 0 | 0.0 | 0.0 | 0.03 | 0.12 | 0.11 | 94 | 1010.1 |
| 20260509090528 | 46 | 0 | 0.0 | 0.0 | 0.02 | 0.11 | 0.10 | 94 | 1010.2 |
| 20260509090054 | 46 | 0 | 0.0 | 0.0 | 0.01 | 0.10 | 0.09 | 94 | 1010.2 |
| 20260509085527 | 46 | 0 | 0.0 | 1.0 | 0.00 | 0.09 | 0.08 | 94 | 1010.3 |
| 20260509085027 | 46 | 0 | 0.0 | 1.0 | 0.01 | 0.09 | 0.08 | 94 | 1010.5 |
| 20260509084548 | 46 | 0 | 0.0 | 1.0 | 0.01 | 0.09 | 0.08 | 94 | 1010.4 |
| 20260509084029 | 46 | 0 | 0.0 | 3.0 | 0.01 | 0.09 | 0.08 | 94 | 1010.5 |
| 20260509083528 | 46 | 0 | 0.0 | 3.0 | 0.01 | 0.09 | 0.08 | 93 | 1010.4 |
| 20260509083046 | 46 | 0 | 0.0 | 3.0 | 0.01 | 0.09 | 0.08 | 93 | 1010.4 |
| 20260509082528 | 46 | 0 | 0.0 | 2.0 | 0.01 | 0.09 | 0.08 | 93 | 1010.4 |
| 20260509082025 | 45 | 0 | 0.0 | 2.0 | 0.01 | 0.09 | 0.08 | 93 | 1010.5 |
| 20260509081546 | 45 | 0 | 0.0 | 2.0 | 0.01 | 0.09 | 0.08 | 93 | 1010.3 |
| 20260509081026 | 45 | 0 | 0.0 | 2.0 | 0.01 | 0.09 | 0.08 | 93 | 1010.5 |
| 20260509080529 | 45 | 0 | 0.0 | 0.0 | 0.01 | 0.09 | 0.08 | 93 | 1010.5 |
| 20260509080043 | 45 | 0 | 0.0 | 0.0 | 0.01 | 0.09 | 0.08 | 93 | 1010.4 |
| 20260509075528 | 46 | 0 | 0.0 | 0.0 | 0.01 | 0.09 | 0.08 | 93 | 1010.3 |
| 20260509075028 | 46 | 0 | 0.0 | 0.0 | 0.00 | 0.08 | 0.07 | 93 | 1010.2 |
| 20260509074544 | 46 | 0 | 0.0 | 1.0 | 0.00 | 0.08 | 0.07 | 93 | 1010.4 |
| 20260509074031 | 46 | 0 | 0.0 | 1.0 | 0.00 | 0.08 | 0.07 | 93 | 1010.5 |
| 20260509073531 | 46 | 0 | 0.0 | 1.0 | 0.00 | 0.08 | 0.07 | 93 | 1010.6 |
| 20260509073038 | 46 | 0 | 0.0 | 0.0 | 0.00 | 0.08 | 0.07 | 92 | 1010.6 |
| 20260509072528 | 46 | 0 | 0.0 | 0.0 | 0.00 | 0.08 | 0.07 | 92 | 1010.7 |
| 20260509072027 | 46 | 0 | 0.0 | 0.0 | 0.00 | 0.08 | 0.07 | 92 | 1010.9 |
| 20260509071554 | 46 | 0 | 0.0 | 1.0 | 0.00 | 0.08 | 0.07 | 93 | 1010.8 |
| 20260509071027 | 46 | 0 | 0.0 | 2.0 | 0.00 | 0.08 | 0.07 | 92 | 1010.8 |
| 20260509070528 | 46 | 0 | 0.0 | 2.0 | 0.00 | 0.08 | 0.07 | 93 | 1010.6 |
| 20260509070045 | 46 | 138 | 0.0 | 2.0 | 0.00 | 0.08 | 0.07 | 93 | 1010.8 |
| 20260509065528 | 46 | 159 | 0.0 | 2.0 | 0.01 | 0.08 | 0.07 | 93 | 1011.0 |
| 20260509065027 | 46 | 0 | 0.0 | 3.0 | 0.01 | 0.08 | 0.07 | 92 | 1010.9 |
| 20260509064542 | 46 | 0 | 0.0 | 3.0 | 0.01 | 0.08 | 0.07 | 92 | 1011.1 |
| 20260509064030 | 46 | 0 | 1.0 | 3.0 | 0.01 | 0.08 | 0.07 | 92 | 1011.2 |
| 20260509063530 | 46 | 0 | 1.0 | 3.0 | 0.01 | 0.08 | 0.07 | 92 | 1011.1 |
| 20260509063041 | 46 | 145 | 0.0 | 4.0 | 0.01 | 0.08 | 0.07 | 92 | 1011.2 |
| 20260509062527 | 46 | 0 | 0.0 | 4.0 | 0.01 | 0.08 | 0.07 | 92 | 1011.4 |
| 20260509062029 | 46 | 0 | 0.0 | 2.0 | 0.01 | 0.08 | 0.07 | 92 | 1011.6 |
| 20260509061554 | 46 | 0 | 0.0 | 2.0 | 0.02 | 0.08 | 0.07 | 92 | 1011.6 |
| 20260509061029 | 46 | 0 | 0.0 | 2.0 | 0.02 | 0.08 | 0.07 | 92 | 1011.7 |
| 20260509060527 | 46 | 180 | 0.0 | 3.0 | 0.02 | 0.08 | 0.07 | 92 | 1011.8 |
| 20260509060049 | 46 | 0 | 0.0 | 3.0 | 0.02 | 0.08 | 0.07 | 92 | 1011.9 |
| 20260509055531 | 46 | 0 | 0.0 | 2.0 | 0.01 | 0.07 | 0.06 | 92 | 1011.9 |
| 20260509055030 | 46 | 0 | 0.0 | 2.0 | 0.01 | 0.07 | 0.06 | 92 | 1011.9 |
| 20260509054605 | 46 | 0 | 0.0 | 1.0 | 0.01 | 0.07 | 0.06 | 92 | 1012.0 |
| 20260509054027 | 46 | 0 | 0.0 | 3.0 | 0.02 | 0.07 | 0.06 | 92 | 1011.8 |
| 20260509053527 | 46 | 0 | 0.0 | 4.0 | 0.03 | 0.07 | 0.06 | 92 | 1012.1 |
| 20260509053049 | 47 | 0 | 2.0 | 4.0 | 0.03 | 0.07 | 0.06 | 92 | 1012.0 |
| 20260509052527 | 47 | 0 | 0.0 | 3.0 | 0.04 | 0.07 | 0.06 | 92 | 1012.1 |
| 20260509052027 | 47 | 0 | 0.0 | 4.0 | 0.04 | 0.07 | 0.06 | 92 | 1012.0 |
| 20260509051543 | 47 | 0 | 0.0 | 4.0 | 0.04 | 0.06 | 0.05 | 92 | 1012.0 |
| 20260509051027 | 47 | 215 | 0.0 | 4.0 | 0.04 | 0.06 | 0.05 | 92 | 1012.1 |
| 20260509050527 | 47 | 169 | 0.0 | 4.0 | 0.05 | 0.06 | 0.05 | 91 | 1012.1 |
| 20260509050054 | 47 | 173 | 0.0 | 4.0 | 0.05 | 0.06 | 0.05 | 91 | 1012.1 |
| 20260509045526 | 47 | 144 | 0.0 | 4.0 | 0.05 | 0.06 | 0.05 | 91 | 1012.0 |
| 20260509045027 | 47 | 155 | 1.0 | 5.0 | 0.05 | 0.06 | 0.05 | 91 | 1012.1 |
| 20260509044544 | 47 | 155 | 2.0 | 6.0 | 0.05 | 0.06 | 0.05 | 91 | 1012.2 |
| 20260509044026 | 47 | 215 | 1.0 | 6.0 | 0.05 | 0.05 | 0.04 | 91 | 1012.2 |
| 20260509043527 | 47 | 184 | 1.0 | 6.0 | 0.04 | 0.04 | 0.03 | 91 | 1012.3 |
| 20260509043052 | 47 | 195 | 0.0 | 5.0 | 0.04 | 0.04 | 0.03 | 91 | 1012.3 |
| 20260509042631 | 47 | 153 | 1.0 | 5.0 | 0.03 | 0.03 | 0.02 | 90 | 1012.3 |
| 20260509041028 | 47 | 236 | 0.0 | 1.0 | 0.02 | 0.02 | 0.01 | 89 | 1012.0 |
| 20260509040527 | 47 | 0 | 0.0 | 0.0 | 0.01 | 0.01 | 0.00 | 89 | 1011.9 |
| 20260509040049 | 47 | 0 | 0.0 | 0.0 | 0.01 | 0.01 | 0.00 | 89 | 1012.0 |
| 20260509035529 | 47 | 0 | 0.0 | 0.0 | 0.01 | 0.01 | 0.01 | 88 | 1011.9 |
| 20260509035027 | 47 | 0 | 0.0 | 0.0 | 0.01 | 0.01 | 0.01 | 88 | 1012.0 |
| 20260509034550 | 48 | 0 | 0.0 | 2.0 | 0.01 | 0.01 | 0.01 | 88 | 1012.0 |
| 20260509034031 | 48 | 0 | 0.0 | 2.0 | 0.00 | 0.00 | 0.00 | 88 | 1012.0 |
| 20260509033526 | 48 | 253 | 0.0 | 1.0 | 0.00 | 0.00 | 0.00 | 88 | 1012.1 |
| 20260509033047 | 48 | 0 | 0.0 | 3.0 | 0.00 | 0.00 | 0.00 | 88 | 1012.1 |
| 20260509032528 | 48 | 0 | 0.0 | 4.0 | 0.00 | 0.00 | 0.00 | 88 | 1012.1 |
| 20260509032028 | 48 | 205 | 0.0 | 5.0 | 0.00 | 0.00 | 0.00 | 88 | 1012.1 |
| 20260509031613 | 48 | 224 | 1.0 | 5.0 | 0.00 | 0.00 | 0.00 | 87 | 1012.2 |
| 20260509031027 | 48 | 189 | 1.0 | 6.0 | 0.00 | 0.00 | 0.00 | 87 | 1012.3 |
| 20260509030530 | 48 | 211 | 2.0 | 6.0 | 0.00 | 0.00 | 0.00 | 86 | 1012.3 |
| 20260509030042 | 48 | 0 | 2.0 | 7.0 | 0.00 | 0.00 | 0.00 | 86 | 1012.3 |
| 20260509025526 | 48 | 230 | 2.0 | 7.0 | 0.00 | 0.03 | 0.00 | 85 | 1012.3 |
| 20260509025027 | 48 | 200 | 2.0 | 7.0 | 0.00 | 0.03 | 0.00 | 85 | 1012.3 |
| 20260509024542 | 48 | 201 | 1.0 | 5.0 | 0.00 | 0.03 | 0.00 | 85 | 1012.3 |
| 20260509024027 | 48 | 240 | 2.0 | 10.0 | 0.00 | 0.03 | 0.00 | 85 | 1012.3 |
| 20260509023527 | 48 | 0 | 2.0 | 10.0 | 0.00 | 0.03 | 0.00 | 85 | 1012.4 |
| 20260509023038 | 48 | 0 | 0.0 | 6.0 | 0.00 | 0.03 | 0.00 | 84 | 1012.2 |
| 20260509022526 | 48 | 221 | 2.0 | 7.0 | 0.00 | 0.03 | 0.00 | 84 | 1012.3 |
| 20260509022028 | 49 | 175 | 2.0 | 7.0 | 0.00 | 0.03 | 0.00 | 84 | 1012.4 |
| 20260509021547 | 49 | 200 | 1.0 | 7.0 | 0.00 | 0.03 | 0.00 | 84 | 1012.3 |
| 20260509021027 | 49 | 177 | 1.0 | 8.0 | 0.00 | 0.03 | 0.00 | 84 | 1012.3 |
| 20260509020526 | 49 | 178 | 3.0 | 8.0 | 0.00 | 0.03 | 0.00 | 84 | 1012.2 |
| 20260509020044 | 49 | 185 | 3.0 | 9.0 | 0.00 | 0.03 | 0.00 | 84 | 1012.3 |
| 20260509015527 | 49 | 144 | 2.0 | 9.0 | 0.00 | 0.07 | 0.00 | 83 | 1012.1 |
| 20260509015028 | 49 | 155 | 4.0 | 9.0 | 0.00 | 0.07 | 0.00 | 83 | 1012.1 |
| 20260509014544 | 49 | 205 | 3.0 | 9.0 | 0.00 | 0.07 | 0.00 | 83 | 1012.0 |
| 20260509014027 | 49 | 184 | 4.0 | 11.0 | 0.00 | 0.07 | 0.00 | 82 | 1011.9 |
| 20260509013527 | 49 | 216 | 2.0 | 11.0 | 0.00 | 0.07 | 0.00 | 82 | 1011.9 |
| 20260509013047 | 50 | 198 | 3.0 | 11.0 | 0.00 | 0.07 | 0.00 | 81 | 1011.8 |
| 20260509012528 | 50 | 171 | 5.0 | 11.0 | 0.00 | 0.07 | 0.00 | 81 | 1011.7 |
| 20260509012028 | 50 | 154 | 4.0 | 11.0 | 0.00 | 0.07 | 0.00 | 80 | 1011.7 |
| 20260509011547 | 50 | 158 | 4.0 | 10.0 | 0.00 | 0.07 | 0.00 | 79 | 1011.5 |
| 20260509011029 | 50 | 138 | 4.0 | 10.0 | 0.00 | 0.07 | 0.00 | 79 | 1011.4 |
| 20260509010526 | 50 | 202 | 2.0 | 4.0 | 0.00 | 0.07 | 0.00 | 79 | 1011.4 |
| 20260509010047 | 50 | 181 | 1.0 | 4.0 | 0.00 | 0.07 | 0.00 | 79 | 1011.5 |
| 20260509005528 | 50 | 185 | 0.0 | 4.0 | 0.00 | 0.07 | 0.00 | 79 | 1011.3 |
| 20260509005027 | 50 | 0 | 0.0 | 3.0 | 0.00 | 0.07 | 0.00 | 79 | 1011.4 |
| 20260509004550 | 50 | 0 | 0.0 | 4.0 | 0.00 | 0.07 | 0.00 | 79 | 1011.2 |
| 20260509004027 | 50 | 0 | 1.0 | 4.0 | 0.00 | 0.07 | 0.00 | 79 | 1011.1 |
| 20260509003528 | 50 | 218 | 1.0 | 3.0 | 0.00 | 0.07 | 0.00 | 78 | 1011.1 |
| 20260509003047 | 51 | 0 | 0.0 | 5.0 | 0.00 | 0.07 | 0.00 | 78 | 1011.0 |
| 20260509002529 | 51 | 198 | 0.0 | 5.0 | 0.00 | 0.07 | 0.00 | 77 | 1011.1 |
| 20260509002027 | 51 | 217 | 0.0 | 3.0 | 0.00 | 0.07 | 0.00 | 77 | 1010.9 |
| 20260509001545 | 51 | 0 | 1.0 | 3.0 | 0.00 | 0.07 | 0.00 | 76 | 1011.0 |
| 20260509001028 | 51 | 0 | 0.0 | 3.0 | 0.00 | 0.07 | 0.00 | 76 | 1010.9 |
| 20260509000527 | 51 | 0 | 0.0 | 3.0 | 0.00 | 0.07 | 0.00 | 76 | 1010.9 |
| 20260509000053 | 51 | 193 | 1.0 | 6.0 | 0.00 | 0.07 | 0.00 | 75 | 1010.9 |
| 20260508235531 | 51 | 0 | 2.0 | 7.0 | 0.00 | 0.07 | 0.00 | 75 | 1010.9 |
| 20260508235030 | 52 | 212 | 2.0 | 7.0 | 0.00 | 0.07 | 0.00 | 74 | 1010.7 |
| 20260508234547 | 52 | 186 | 2.0 | 7.0 | 0.00 | 0.07 | 0.00 | 73 | 1010.7 |
| 20260508234026 | 52 | 0 | 1.0 | 7.0 | 0.00 | 0.07 | 0.00 | 72 | 1010.6 |
| 20260508233527 | 53 | 187 | 2.0 | 6.0 | 0.00 | 0.07 | 0.00 | 70 | 1010.5 |
| 20260508233050 | 53 | 186 | 2.0 | 9.0 | 0.00 | 0.07 | 0.00 | 69 | 1010.4 |
| 20260508232527 | 54 | 154 | 2.0 | 15.0 | 0.00 | 0.07 | 0.00 | 67 | 1010.4 |
| 20260508232027 | 54 | 214 | 5.0 | 15.0 | 0.00 | 0.07 | 0.00 | 65 | 1010.4 |
| 20260508231550 | 55 | 171 | 2.0 | 14.0 | 0.00 | 0.07 | 0.00 | 63 | 1010.6 |
| 20260508231028 | 56 | 180 | 4.0 | 12.0 | 0.00 | 0.07 | 0.00 | 60 | 1010.5 |
| 20260508230530 | 56 | 136 | 0.0 | 4.0 | 0.00 | 0.07 | 0.00 | 57 | 1010.1 |
| 20260508230046 | 56 | 0 | 0.0 | 4.0 | 0.00 | 0.07 | 0.00 | 57 | 1009.9 |
| 20260508225527 | 57 | 115 | 1.0 | 4.0 | 0.00 | 0.07 | 0.00 | 55 | 1010.0 |
| 20260508225031 | 57 | 0 | 0.0 | 2.0 | 0.00 | 0.07 | 0.00 | 52 | 1009.8 |
| 20260508224545 | 56 | 0 | 0.0 | 2.0 | 0.00 | 0.07 | 0.00 | 54 | 1009.9 |
| 20260508224027 | 56 | 214 | 0.0 | 2.0 | 0.00 | 0.07 | 0.00 | 55 | 1010.0 |
| 20260508223528 | 56 | 0 | 0.0 | 0.0 | 0.00 | 0.07 | 0.00 | 57 | 1010.1 |
| 20260508223042 | 56 | 0 | 0.0 | 1.0 | 0.00 | 0.07 | 0.00 | 56 | 1010.1 |
| 20260508222525 | 56 | 0 | 0.0 | 2.0 | 0.00 | 0.07 | 0.00 | 54 | 1010.1 |
| 20260508222027 | 56 | 0 | 0.0 | 3.0 | 0.00 | 0.07 | 0.00 | 54 | 1010.2 |
| 20260508221540 | 56 | 0 | 0.0 | 3.0 | 0.00 | 0.07 | 0.00 | 56 | 1010.2 |
| 20260508221028 | 56 | 0 | 0.0 | 2.0 | 0.00 | 0.07 | 0.00 | 54 | 1010.2 |
| 20260508220530 | 56 | 0 | 0.0 | 2.0 | 0.00 | 0.07 | 0.00 | 54 | 1010.1 |
| 20260508220048 | 56 | 0 | 0.0 | 2.0 | 0.00 | 0.07 | 0.00 | 58 | 1010.1 |
| 20260508215529 | 56 | 0 | 0.0 | 2.0 | 0.00 | 0.07 | 0.00 | 57 | 1010.1 |
| 20260508215030 | 56 | 290 | 0.0 | 3.0 | 0.00 | 0.07 | 0.00 | 55 | 1010.2 |
| 20260508214556 | 56 | 14 | 1.0 | 3.0 | 0.00 | 0.07 | 0.00 | 53 | 1010.1 |
| 20260508214030 | 56 | 0 | 0.0 | 4.0 | 0.00 | 0.07 | 0.00 | 56 | 1010.1 |
| 20260508213529 | 56 | 61 | 1.0 | 4.0 | 0.00 | 0.07 | 0.00 | 52 | 1010.1 |
| 20260508213057 | 56 | 0 | 1.0 | 3.0 | 0.00 | 0.07 | 0.00 | 55 | 1010.2 |
| 20260508212529 | 55 | 0 | 0.0 | 3.0 | 0.00 | 0.07 | 0.00 | 54 | 1010.2 |
| 20260508212033 | 56 | 225 | 1.0 | 5.0 | 0.00 | 0.07 | 0.00 | 57 | 1010.3 |
| 20260508211543 | 56 | 36 | 0.0 | 5.0 | 0.00 | 0.07 | 0.00 | 54 | 1010.2 |
| 20260508211027 | 56 | 42 | 0.0 | 3.0 | 0.00 | 0.07 | 0.00 | 55 | 1010.2 |
| 20260508210530 | 56 | 0 | 0.0 | 4.0 | 0.00 | 0.07 | 0.00 | 56 | 1010.2 |
| 20260508210048 | 56 | 0 | 0.0 | 7.0 | 0.00 | 0.07 | 0.00 | 54 | 1010.1 |
| 20260508205530 | 56 | 267 | 2.0 | 7.0 | 0.00 | 0.07 | 0.00 | 51 | 1010.3 |
| 20260508205027 | 57 | 217 | 3.0 | 6.0 | 0.00 | 0.07 | 0.00 | 50 | 1010.2 |
| 20260508204551 | 57 | 217 | 2.0 | 7.0 | 0.00 | 0.07 | 0.00 | 51 | 1010.3 |
| 20260508204030 | 57 | 232 | 0.0 | 9.0 | 0.00 | 0.07 | 0.00 | 52 | 1010.3 |
| 20260508203529 | 57 | 184 | 3.0 | 9.0 | 0.00 | 0.07 | 0.00 | 55 | 1010.4 |
| 20260508203054 | 56 | 157 | 2.0 | 9.0 | 0.00 | 0.07 | 0.00 | 53 | 1010.3 |
| 20260508202532 | 56 | 288 | 2.0 | 8.0 | 0.00 | 0.07 | 0.00 | 53 | 1010.6 |
| 20260508202029 | 56 | 342 | 1.0 | 8.0 | 0.00 | 0.07 | 0.00 | 53 | 1010.7 |